| time (UTC) | temp F | wind direction | speed MPH | gust MPH | rain 1hr in | rain 24hr in | rain mn in | humidity % | barometer mb |
| 20260508202020 | 78 | 17 | 7.0 | 11.0 | 0.89 | 0.89 | 0.89 | 31 | 1011.9 |
| 20260508201030 | 77 | 342 | 9.0 | 13.0 | 0.89 | 0.89 | 0.89 | 31 | 1012.0 |
| 20260508200123 | 77 | 343 | 10.0 | 15.0 | 0.89 | 0.89 | 0.89 | 31 | 1012.1 |
| 20260508195047 | 77 | 347 | 11.0 | 12.0 | 0.89 | 0.89 | 0.89 | 32 | 1012.1 |
| 20260508194018 | 78 | 360 | 11.0 | 16.0 | 0.00 | 0.00 | 0.00 | 32 | 1012.1 |
| 20260508193033 | 77 | 302 | 9.0 | 12.0 | 0.00 | 0.00 | 0.00 | 32 | 1012.1 |
| 20260508192024 | 77 | 332 | 10.0 | 17.0 | 0.00 | 0.00 | 0.00 | 32 | 1012.2 |
| 20260508191054 | 77 | 3 | 12.0 | 19.0 | 0.00 | 0.00 | 0.00 | 32 | 1012.3 |
| 20260508190042 | 77 | 353 | 12.0 | 16.0 | 0.00 | 0.00 | 0.00 | 33 | 1012.4 |
| 20260508185114 | 77 | 2 | 10.0 | 17.0 | 0.00 | 0.00 | 0.00 | 34 | 1012.4 |
| 20260508184019 | 77 | 342 | 11.0 | 16.0 | 0.00 | 0.00 | 0.00 | 34 | 1012.4 |
| 20260508183044 | 75 | 347 | 8.0 | 10.0 | 0.00 | 0.00 | 0.00 | 35 | 1012.4 |
| 20260508182033 | 75 | 349 | 10.0 | 13.0 | 0.00 | 0.00 | 0.00 | 34 | 1012.5 |
| 20260508181023 | 77 | 346 | 8.0 | 14.0 | 0.00 | 0.00 | 0.00 | 35 | 1012.7 |
| 20260508180025 | 76 | 333 | 8.0 | 11.0 | 0.00 | 0.00 | 0.00 | 36 | 1012.8 |
| 20260508175039 | 76 | 304 | 9.0 | 13.0 | 0.00 | 0.00 | 0.00 | 36 | 1012.9 |
| 20260508174048 | 75 | 318 | 9.0 | 12.0 | 0.00 | 0.00 | 0.00 | 37 | 1012.9 |
| 20260508173019 | 74 | 5.0 | 5.0 | 0.00 | 0.00 | 0.00 | 37 | 1012.8 | |
| 20260508172021 | 75 | 10 | 8.0 | 11.0 | 0.00 | 0.00 | 0.00 | 36 | 1012.7 |
| 20260508171029 | 78 | 342 | 8.0 | 13.0 | 0.00 | 0.00 | 0.00 | 34 | 1012.6 |
| 20260508170022 | 77 | 346 | 7.0 | 9.0 | 0.00 | 0.00 | 0.00 | 36 | 1012.6 |
| 20260508165028 | 77 | 331 | 5.0 | 8.0 | 0.00 | 0.00 | 0.00 | 38 | 1012.6 |
| 20260508164021 | 76 | 323 | 4.0 | 7.0 | 0.00 | 0.00 | 0.00 | 39 | 1012.5 |
| 20260508163024 | 78 | 283 | 4.0 | 7.0 | 0.00 | 0.00 | 0.00 | 38 | 1012.5 |
| 20260508162033 | 79 | 264 | 4.0 | 7.0 | 0.00 | 0.00 | 0.00 | 37 | 1012.2 |
| 20260508161024 | 83 | 19 | 3.0 | 4.0 | 0.00 | 0.00 | 0.00 | 36 | 1012.3 |
| 20260508160048 | 82 | 199 | 3.0 | 5.0 | 0.00 | 0.00 | 0.00 | 37 | 1012.3 |
| 20260508155054 | 82 | 293 | 3.0 | 5.0 | 0.00 | 0.00 | 0.00 | 36 | 1012.2 |
| 20260508154024 | 80 | 247 | 3.0 | 4.0 | 0.00 | 0.00 | 0.00 | 38 | 1012.2 |
| 20260508153054 | 82 | 32 | 2.0 | 3.0 | 0.00 | 0.00 | 0.00 | 37 | 1012.1 |
| 20260508152030 | 81 | 148 | 1.0 | 2.0 | 0.00 | 0.00 | 0.00 | 37 | 1012.1 |
| 20260508151018 | 80 | 351 | 2.0 | 3.0 | 0.00 | 0.00 | 0.00 | 37 | 1012.1 |
| 20260508150018 | 79 | 56 | 1.0 | 2.0 | 0.00 | 0.00 | 0.00 | 37 | 1012.1 |
| 20260508145032 | 77 | 119 | 2.0 | 2.0 | 0.00 | 0.00 | 0.00 | 40 | 1012.0 |
| 20260508144028 | 76 | 124 | 0.0 | 1.0 | 0.00 | 0.00 | 0.00 | 42 | 1012.0 |
| 20260508143027 | 74 | 0.0 | 0.0 | 0.00 | 0.00 | 0.00 | 45 | 1012.0 | |
| 20260508142032 | 71 | 0.0 | 0.0 | 0.00 | 0.00 | 0.00 | 49 | 1011.9 | |
| 20260508141020 | 68 | 180 | 0.0 | 2.0 | 0.00 | 0.00 | 0.00 | 51 | 1011.8 |
| 20260508140020 | 66 | 0.0 | 0.0 | 0.00 | 0.00 | 0.00 | 53 | 1011.8 | |
| 20260508135027 | 62 | 0.0 | 0.0 | 0.00 | 0.00 | 0.00 | 57 | 1011.9 | |
| 20260508134028 | 58 | 0.0 | 0.0 | 0.00 | 0.00 | 0.00 | 63 | 1011.5 | |
| 20260508133017 | 54 | 0.0 | 0.0 | 0.00 | 0.00 | 0.00 | 69 | 1011.5 | |
| 20260508132026 | 50 | 0.0 | 0.0 | 0.00 | 0.00 | 0.00 | 73 | 1011.5 | |
| 20260508131028 | 48 | 0.0 | 0.0 | 0.00 | 0.00 | 0.00 | 76 | 1011.5 | |
| 20260508130033 | 46 | 0.0 | 0.0 | 0.00 | 0.00 | 0.00 | 78 | 1011.4 | |
| 20260508125019 | 46 | 115 | 1.0 | 3.0 | 0.00 | 0.00 | 0.00 | 78 | 1011.1 |
| 20260508124022 | 45 | 351 | 1.0 | 2.0 | 0.00 | 0.00 | 0.00 | 77 | 1011.1 |
| 20260508123032 | 46 | 0.0 | 0.0 | 0.00 | 0.00 | 0.00 | 76 | 1011.1 | |
| 20260508122021 | 47 | 210 | 1.0 | 3.0 | 0.00 | 0.00 | 0.00 | 75 | 1010.8 |
| 20260508121020 | 47 | 111 | 1.0 | 3.0 | 0.00 | 0.00 | 0.00 | 74 | 1010.9 |
| 20260508120030 | 48 | 111 | 2.0 | 4.0 | 0.00 | 0.00 | 0.00 | 74 | 1010.9 |
| 20260508115019 | 48 | 0.0 | 0.0 | 0.00 | 0.00 | 0.00 | 73 | 1010.8 | |
| 20260508114021 | 48 | 0.0 | 0.0 | 0.00 | 0.00 | 0.00 | 72 | 1010.8 | |
| 20260508113112 | 49 | 141 | 0.0 | 2.0 | 0.00 | 0.00 | 0.00 | 72 | 1010.8 |
| 20260508112042 | 49 | 71 | 2.0 | 2.0 | 0.00 | 0.00 | 0.00 | 71 | 1010.6 |
| 20260508111052 | 49 | 343 | 2.0 | 3.0 | 0.00 | 0.00 | 0.00 | 72 | 1010.6 |
| 20260508110023 | 49 | 0.0 | 0.0 | 0.00 | 0.00 | 0.00 | 72 | 1010.6 | |
| 20260508105023 | 49 | 53 | 2.0 | 3.0 | 0.00 | 0.00 | 0.00 | 72 | 1010.5 |
| 20260508104033 | 49 | 37 | 2.0 | 3.0 | 0.00 | 0.00 | 0.00 | 73 | 1010.4 |
| 20260508103023 | 49 | 92 | 2.0 | 3.0 | 0.00 | 0.00 | 0.00 | 73 | 1010.4 |
| 20260508102032 | 48 | 55 | 2.0 | 3.0 | 0.00 | 0.00 | 0.00 | 73 | 1010.4 |
| 20260508101027 | 49 | 0.0 | 0.0 | 0.00 | 0.00 | 0.00 | 73 | 1010.4 | |
| 20260508100028 | 49 | 98 | 2.0 | 4.0 | 0.00 | 0.00 | 0.00 | 72 | 1010.4 |
| 20260508095031 | 49 | 99 | 2.0 | 2.0 | 0.00 | 0.00 | 0.00 | 72 | 1010.4 |
| 20260508094022 | 49 | 58 | 1.0 | 2.0 | 0.00 | 0.00 | 0.00 | 71 | 1010.4 |
| 20260508093022 | 50 | 0.0 | 0.0 | 0.00 | 0.00 | 0.00 | 70 | 1010.2 | |
| 20260508092050 | 51 | 11 | 0.0 | 2.0 | 0.00 | 0.00 | 0.00 | 66 | 1010.2 |
| 20260508091043 | 51 | 41 | 2.0 | 3.0 | 0.00 | 0.00 | 0.00 | 66 | 1010.1 |
| 20260508090018 | 52 | 44 | 2.0 | 2.0 | 0.00 | 0.00 | 0.00 | 66 | 1010.0 |
| 20260508085027 | 51 | 45 | 2.0 | 3.0 | 0.00 | 0.00 | 0.00 | 66 | 1010.2 |
| 20260508084026 | 51 | 39 | 2.0 | 3.0 | 0.00 | 0.00 | 0.00 | 66 | 1010.2 |
| 20260508083017 | 52 | 320 | 2.0 | 3.0 | 0.00 | 0.00 | 0.00 | 66 | 1010.1 |
| 20260508082024 | 52 | 66 | 2.0 | 2.0 | 0.00 | 0.00 | 0.00 | 66 | 1010.1 |
| 20260508081030 | 52 | 56 | 2.0 | 3.0 | 0.00 | 0.00 | 0.00 | 66 | 1010.0 |
| 20260508080039 | 52 | 55 | 2.0 | 3.0 | 0.00 | 0.00 | 0.00 | 67 | 1010.0 |
| 20260508075020 | 52 | 61 | 3.0 | 4.0 | 0.00 | 0.00 | 0.00 | 67 | 1010.1 |
| 20260508074027 | 52 | 33 | 2.0 | 4.0 | 0.00 | 0.00 | 0.00 | 66 | 1010.1 |
| 20260508073054 | 52 | 59 | 2.0 | 2.0 | 0.00 | 0.00 | 0.00 | 67 | 1010.1 |
| 20260508072106 | 52 | 97 | 2.0 | 3.0 | 0.00 | 0.00 | 0.00 | 66 | 1010.2 |
| 20260508071026 | 52 | 230 | 1.0 | 2.0 | 0.00 | 0.00 | 0.00 | 66 | 1010.1 |
| 20260508070035 | 53 | 258 | 1.0 | 3.0 | 0.00 | 0.00 | 0.00 | 64 | 1010.0 |
| 20260508065024 | 54 | 0.0 | 0.0 | 0.00 | 0.00 | 0.00 | 64 | 1010.1 | |
| 20260508064034 | 54 | 137 | 2.0 | 2.0 | 0.00 | 0.00 | 0.00 | 62 | 1010.1 |
| 20260508063025 | 55 | 111 | 2.0 | 3.0 | 0.00 | 0.00 | 0.00 | 61 | 1009.9 |
| 20260508062027 | 55 | 35 | 2.0 | 3.0 | 0.00 | 0.00 | 0.00 | 60 | 1010.0 |
| 20260508061034 | 55 | 326 | 2.0 | 3.0 | 0.00 | 0.00 | 0.00 | 61 | 1009.9 |
| 20260508060024 | 56 | 0.0 | 0.0 | 0.00 | 0.00 | 0.00 | 60 | 1009.8 | |
| 20260508055028 | 56 | 83 | 3.0 | 3.0 | 0.00 | 0.00 | 0.00 | 59 | 1009.8 |
| 20260508054034 | 57 | 61 | 2.0 | 2.0 | 0.00 | 0.00 | 0.00 | 58 | 1009.5 |
| 20260508053026 | 57 | 360 | 2.0 | 3.0 | 0.00 | 0.00 | 0.00 | 58 | 1009.5 |
| 20260508052033 | 58 | 333 | 2.0 | 2.0 | 0.00 | 0.00 | 0.00 | 57 | 1009.5 |
| 20260508051023 | 58 | 16 | 2.0 | 3.0 | 0.00 | 0.00 | 0.00 | 56 | 1009.5 |
| 20260508050034 | 59 | 350 | 2.0 | 2.0 | 0.00 | 0.00 | 0.00 | 54 | 1009.4 |
| 20260508045027 | 59 | 79 | 3.0 | 4.0 | 0.00 | 0.00 | 0.00 | 54 | 1009.4 |
| 20260508044022 | 59 | 95 | 2.0 | 3.0 | 0.00 | 0.00 | 0.00 | 55 | 1009.5 |
| 20260508043033 | 60 | 124 | 0.0 | 2.0 | 0.00 | 0.00 | 0.00 | 53 | 1009.6 |
| 20260508042049 | 61 | 120 | 1.0 | 2.0 | 0.00 | 0.00 | 0.00 | 51 | 1009.5 |
| 20260508041017 | 61 | 0.0 | 0.0 | 0.00 | 0.00 | 0.00 | 50 | 1009.5 | |
| 20260508040028 | 62 | 0.0 | 0.0 | 0.00 | 0.00 | 0.00 | 48 | 1009.4 | |
| 20260508035018 | 63 | 0.0 | 0.0 | 0.00 | 0.00 | 0.00 | 47 | 1009.3 | |
| 20260508034027 | 64 | 201 | 2.0 | 4.0 | 0.00 | 0.00 | 0.00 | 47 | 1009.1 |
| 20260508033020 | 66 | 168 | 3.0 | 4.0 | 0.00 | 0.00 | 0.00 | 44 | 1009.0 |
| 20260508032028 | 67 | 10 | 3.0 | 4.0 | 0.00 | 0.00 | 0.00 | 42 | 1008.9 |
| 20260508031023 | 67 | 52 | 4.0 | 4.0 | 0.00 | 0.00 | 0.00 | 41 | 1008.9 |
| 20260508030033 | 68 | 34 | 3.0 | 4.0 | 0.00 | 0.00 | 0.00 | 41 | 1008.9 |
| 20260508025023 | 68 | 12 | 2.0 | 3.0 | 0.00 | 0.00 | 0.00 | 39 | 1008.6 |
| 20260508024025 | 70 | 29 | 2.0 | 2.0 | 0.00 | 0.00 | 0.00 | 38 | 1008.8 |
| 20260508023034 | 72 | 354 | 2.0 | 3.0 | 0.00 | 0.00 | 0.00 | 37 | 1008.6 |
| 20260508022026 | 74 | 348 | 2.0 | 3.0 | 0.00 | 0.00 | 0.00 | 35 | 1008.6 |
| 20260508021043 | 76 | 0.0 | 0.0 | 0.00 | 0.00 | 0.00 | 34 | 1008.5 | |
| 20260508020048 | 77 | 326 | 1.0 | 2.0 | 0.00 | 0.00 | 0.00 | 33 | 1008.5 |
| 20260508015021 | 78 | 359 | 3.0 | 5.0 | 0.00 | 0.00 | 0.00 | 32 | 1008.6 |
| 20260508014031 | 78 | 113 | 0.0 | 2.0 | 0.00 | 0.00 | 0.00 | 33 | 1008.5 |
| 20260508013025 | 77 | 165 | 1.0 | 3.0 | 0.00 | 0.00 | 0.00 | 33 | 1008.6 |
| 20260508012034 | 76 | 135 | 2.0 | 3.0 | 0.00 | 0.00 | 0.00 | 34 | 1008.6 |
| 20260508011026 | 75 | 107 | 2.0 | 4.0 | 0.00 | 0.00 | 0.00 | 35 | 1008.6 |
| 20260508010021 | 75 | 118 | 2.0 | 3.0 | 0.00 | 0.00 | 0.00 | 34 | 1008.7 |
| 20260508005031 | 75 | 75 | 4.0 | 6.0 | 0.00 | 0.00 | 0.00 | 35 | 1008.8 |
| 20260508004023 | 75 | 45 | 5.0 | 6.0 | 0.00 | 0.00 | 0.00 | 35 | 1008.9 |
| 20260508003032 | 75 | 1 | 4.0 | 5.0 | 0.00 | 0.00 | 0.00 | 35 | 1009.0 |
| 20260508002023 | 76 | 28 | 3.0 | 5.0 | 0.00 | 0.00 | 0.00 | 34 | 1009.1 |
| 20260508001033 | 77 | 352 | 4.0 | 6.0 | 0.00 | 0.00 | 0.00 | 34 | 1009.2 |
| 20260508000021 | 77 | 47 | 3.0 | 5.0 | 0.00 | 0.00 | 0.00 | 34 | 1009.3 |
| 20260507235034 | 79 | 299 | 4.0 | 6.0 | 0.00 | 0.00 | 0.00 | 33 | 1009.3 |
| 20260507234025 | 79 | 324 | 5.0 | 7.0 | 0.00 | 0.00 | 0.00 | 33 | 1009.4 |
| 20260507233020 | 79 | 40 | 6.0 | 8.0 | 0.00 | 0.00 | 0.00 | 32 | 1009.5 |
| 20260507232033 | 80 | 55 | 6.0 | 9.0 | 0.00 | 0.00 | 0.00 | 32 | 1009.7 |
| 20260507231024 | 79 | 4 | 6.0 | 10.0 | 0.00 | 0.00 | 0.00 | 33 | 1009.8 |
| 20260507230019 | 81 | 291 | 5.0 | 7.0 | 0.00 | 0.00 | 0.00 | 31 | 1009.8 |
| 20260507225028 | 83 | 295 | 3.0 | 5.0 | 0.00 | 0.00 | 0.00 | 31 | 1009.8 |
| 20260507224021 | 83 | 29 | 5.0 | 9.0 | 0.00 | 0.00 | 0.00 | 31 | 1010.1 |
| 20260507223030 | 80 | 308 | 3.0 | 5.0 | 0.00 | 0.00 | 0.00 | 32 | 1010.2 |
| 20260507222023 | 81 | 14 | 4.0 | 7.0 | 0.00 | 0.00 | 0.00 | 30 | 1010.2 |
| 20260507221033 | 81 | 342 | 6.0 | 8.0 | 0.00 | 0.00 | 0.00 | 31 | 1010.4 |
| 20260507220024 | 82 | 316 | 6.0 | 10.0 | 0.00 | 0.00 | 0.00 | 31 | 1010.5 |
| 20260507215021 | 80 | 297 | 6.0 | 9.0 | 0.00 | 0.00 | 0.00 | 31 | 1010.5 |
| 20260507214029 | 80 | 278 | 5.0 | 9.0 | 0.00 | 0.00 | 0.00 | 31 | 1010.6 |
| 20260507213040 | 81 | 348 | 6.0 | 11.0 | 0.00 | 0.00 | 0.00 | 31 | 1010.9 |
| 20260507212032 | 81 | 328 | 6.0 | 9.0 | 0.00 | 0.00 | 0.00 | 30 | 1011.1 |
| 20260507211023 | 82 | 276 | 7.0 | 10.0 | 0.00 | 0.00 | 0.00 | 30 | 1011.1 |
| 20260507210019 | 83 | 305 | 4.0 | 6.0 | 0.00 | 0.00 | 0.00 | 30 | 1011.1 |
| 20260507205030 | 85 | 304 | 5.0 | 6.0 | 0.00 | 0.00 | 0.00 | 29 | 1011.1 |
| 20260507204044 | 84 | 44 | 4.0 | 6.0 | 0.00 | 0.00 | 0.00 | 29 | 1011.3 |
| 20260507203055 | 83 | 87 | 4.0 | 7.0 | 0.00 | 0.00 | 0.00 | 29 | 1011.5 |